Orlando International, FL

7:44 PM EDT on March 25, 2017 (GMT -0400)
Orlando International

Weather History for KMCO - October, 2012

Change the Weather History Date:

Saturday, October 20, 2012

  Actual Average Record
Temperature  
Mean Temperature 74 °F 74 °F  
Max Temperature 83 °F 84 °F 93 °F (1919)
Min Temperature 64 °F 65 °F 46 °F (1989)
Degree Days  
Heating Degree Days 0 0  
Month to date heating degree days 0 0  
Since 1 July heating degree days 0 0  
Cooling Degree Days 9 10  
Month to date cooling degree days 275 238  
Year to date cooling degree days 3365 3114  
Growing Degree Days 24 (Base 50)    
Moisture  
Dew Point 58 °F    
Average Humidity 61    
Maximum Humidity 87    
Minimum Humidity 34    
Precipitation  
Precipitation 0.00 in 0.10 in 1.15 in (1902)
Month to date precipitation 1.90 2.43  
Year to date precipitation 39.26 45.10  
Sea Level Pressure  
Sea Level Pressure 29.91 in    
Wind  
Wind Speed 7 mph (NW)    
Max Wind Speed 16 mph    
Max Gust Speed 24 mph    
Visibility 10 miles    
Events      
T = Trace of Precipitation, MM = Missing Value Source: NWS Daily Summary

Daily Weather History Graph

Daily Weather History Graph

Search for Another Location

Airport or City:

Trip Planner

Search our weather history database for the weather conditions in past years. The results will help you decide how hot, cold, wet, or windy it might be!

Date:

Astronomy

Oct. 20, 2012 Rise Set
Actual Time 7:29 AM EDT 6:50 PM EDT
Civil Twilight 7:05 AM EDT 7:14 PM EDT
Nautical Twilight 6:37 AM EDT 7:41 PM EDT
Astronomical Twilight 6:10 AM EDT 8:08 PM EDT
Moon 12:50 PM EDT (10/20) 11:47 PM EDT (10/20)
Length of Visible Light 12h 08m
Length of Day
11h 20m
Waxing Crescent, 34% of the Moon is Illuminated
Oct 20
Waxing Crescent
Oct 21
First Quarter
Oct 29
Full
Nov 6
Last Quarter
Nov 13
New

Hourly Weather History & Observations

Time (EDT) Temp. Heat Index Dew Point Humidity Pressure Visibility Wind Dir Wind Speed Gust Speed Precip Events Conditions
12:53 AM 77.0 °F - 68.0 °F 74% 29.88 in 10.0 mi WNW 4.6 mph - N/A   Mostly Cloudy
1:53 AM 75.9 °F - 69.1 °F 79% 29.88 in 10.0 mi West 4.6 mph - N/A   Mostly Cloudy
2:53 AM 75.0 °F - 69.1 °F 82% 29.87 in 10.0 mi WNW 8.1 mph - N/A   Partly Cloudy
3:43 AM 75.2 °F - 69.8 °F 83% 29.87 in 10.0 mi NW 6.9 mph - N/A   Mostly Cloudy
3:53 AM 73.9 °F - 70.0 °F 87% 29.86 in 10.0 mi NW 6.9 mph - N/A   Mostly Cloudy
4:10 AM 73.4 °F - 69.8 °F 88% 29.86 in 10.0 mi NW 5.8 mph - N/A   Scattered Clouds
4:53 AM 73.0 °F - 70.0 °F 90% 29.87 in 10.0 mi NNW 4.6 mph - N/A   Scattered Clouds
5:53 AM 73.0 °F - 66.0 °F 79% 29.89 in 10.0 mi NNW 8.1 mph - N/A   Overcast
6:53 AM 71.1 °F - 57.9 °F 63% 29.91 in 10.0 mi NNW 12.7 mph - N/A   Mostly Cloudy
7:53 AM 70.0 °F - 51.1 °F 51% 29.92 in 10.0 mi NNW 12.7 mph - N/A   Partly Cloudy
8:53 AM 71.1 °F - 53.1 °F 53% 29.95 in 10.0 mi North 8.1 mph - N/A   Mostly Cloudy
9:53 AM 73.0 °F - 52.0 °F 48% 29.96 in 10.0 mi NNW 12.7 mph - N/A   Scattered Clouds
10:53 AM 75.9 °F - 50.0 °F 40% 29.96 in 10.0 mi NNW 13.8 mph - N/A   Partly Cloudy
11:53 AM 78.1 °F - 48.9 °F 36% 29.96 in 10.0 mi NNW 5.8 mph - N/A   Clear
12:53 PM 81.0 °F - 52.0 °F 36% 29.94 in 10.0 mi North 6.9 mph - N/A   Clear
1:53 PM 81.0 °F 80.5 °F 54.0 °F 39% 29.91 in 10.0 mi NW 6.9 mph - N/A   Clear
2:53 PM 82.0 °F 81.4 °F 55.0 °F 39% 29.89 in 10.0 mi West 10.4 mph - N/A   Clear
3:53 PM 82.0 °F 81.3 °F 54.0 °F 38% 29.88 in 10.0 mi NNW 6.9 mph - N/A   Clear
4:53 PM 82.0 °F - 52.0 °F 35% 29.88 in 10.0 mi WNW 10.4 mph - N/A   Clear
5:53 PM 80.1 °F - 51.1 °F 36% 29.89 in 10.0 mi NW 6.9 mph - N/A   Clear
6:53 PM 75.0 °F - 50.0 °F 41% 29.89 in 10.0 mi NNW 5.8 mph - N/A   Partly Cloudy
7:53 PM 71.1 °F - 55.9 °F 59% 29.91 in 10.0 mi NW 3.5 mph - N/A   Clear
8:53 PM 71.1 °F - 52.0 °F 51% 29.93 in 10.0 mi NNE 3.5 mph - N/A   Clear
9:53 PM 69.1 °F - 52.0 °F 54% 29.96 in 10.0 mi WNW 6.9 mph - N/A   Clear
10:53 PM 66.9 °F - 55.9 °F 68% 29.99 in 10.0 mi North 4.6 mph - N/A   Clear
11:53 PM 66.0 °F - 54.0 °F 65% 29.99 in 10.0 mi Calm Calm - N/A   Clear